This is the latest recevied weather packets stored in our database for station/object K5RWS. If no packets are shown the sender has not sent any weather packets the latest 10 day(s).
| Time | Temp. | Humidity | Pressure | Rain* | Wind** | Luminosity | Snow |
|---|---|---|---|---|---|---|---|
| 1777514361 | 21.67° C | 8% | 1014.6 hPa | 0 mm | - | 1 W/m² | - |
| 1777514057 | 21.67° C | 8% | 1014.5 hPa | 0 mm | - | 2 W/m² | - |
| 1777513755 | 22.22° C | 8% | 1014.3 hPa | 0 mm | - | 3 W/m² | - |
| 1777513452 | 22.22° C | 8% | 1014.5 hPa | 0 mm | - | 4 W/m² | - |
| 1777513148 | 22.22° C | 8% | 1014.6 hPa | 0 mm | - | 6 W/m² | - |
| 1777512844 | 22.78° C | 8% | 1014.3 hPa | 0 mm | - | 9 W/m² | - |
| 1777512541 | 22.78° C | 7% | 1014.5 hPa | 0 mm | - | 14 W/m² | - |
| 1777512237 | 22.78° C | 7% | 1014.3 hPa | 0 mm | - | 19 W/m² | - |
| 1777511935 | 22.78° C | 7% | 1014.6 hPa | 0 mm | - | 18 W/m² | - |
| 1777511632 | 23.33° C | 7% | 1014.5 hPa | 0 mm | - | 29 W/m² | - |
| 1777511330 | 23.89° C | 7% | 1014.2 hPa | 0 mm | - | 40 W/m² | - |
| 1777511025 | 23.89° C | 7% | 1014.2 hPa | 0 mm | - | 60 W/m² | - |
| 1777510722 | 23.89° C | 7% | 1014.3 hPa | 0 mm | - | 64 W/m² | - |
| 1777510418 | 23.89° C | 7% | 1014.3 hPa | 0 mm | - | 59 W/m² | - |
| 1777510114 | 23.89° C | 7% | 1014.3 hPa | 0 mm | - | 58 W/m² | - |
| 1777509812 | 23.89° C | 7% | 1014.3 hPa | 0 mm | - | 52 W/m² | - |
| 1777509507 | 23.89° C | 7% | 1014.3 hPa | 0 mm | - | 54 W/m² | - |
| 1777509204 | 24.44° C | 8% | 1014.1 hPa | 0 mm | - | 60 W/m² | - |
| 1777508901 | 24.44° C | 7% | 1014.1 hPa | 0 mm | - | 61 W/m² | - |
| 1777508593 | 24.44° C | 8% | 1014.3 hPa | 0 mm | - | 82 W/m² | - |
| 1777508290 | 24.44° C | 7% | 1014.2 hPa | 0 mm | - | 99 W/m² | - |
| 1777507987 | 25° C | 8% | 1014.2 hPa | 0 mm | - | 110 W/m² | - |
* Rain latest hour (hover to see other rain measurements)
** Current wind speed in m/s (hover to see current wind gust speed)